Regional Weather Roundup
Issued by NWS Little Rock, AR

Home | Current Version | Previous Version | Graphics & Text | Print | Product List | Glossary On
Versions: 1 2 3 4 5 6 7 8 9 10 11 12 13 14 15 16 17 18 19 20 21 22 23 24 25 26 27 28 29 30 31 32 33 34 35 36 37 38 39 40 41 42 43 44 45 46 47 48
282
ASUS44 KLZK 091505
RWRLZK

WEATHER ROUNDUP FOR ARKANSAS
NATIONAL WEATHER SERVICE LITTLE ROCK AR
900 AM CST TUE FEB 09 2016

NOTE: "FAIR" INDICATES FEW OR NO CLOUDS BELOW 12,000 FEET WITH NO
SIGNIFICANT WEATHER AND/OR OBSTRUCTIONS TO VISIBILITY.

ARZ001-003-010-029-091600-
NORTHWEST ARKANSAS

CITY           SKY/WX    TMP DP  RH WIND       PRES   REMARKS
FAYETTEVILLE   SUNNY     32  20  61 NW12      30.11R WCI  23
FORT SMITH     SUNNY     37  17  44 W15       30.16S
HARRISON       SUNNY     31  12  45 NW18G32   30.02R WCI  19
BENTONVILLE    SUNNY     30  16  55 NW16G28   30.11R WCI  19
ROGERS         SUNNY     31  18  58 NW18G26   30.09R WCI  19
SILOAM SPGS    SUNNY     34  14  44 NW24G33   30.13R WCI  21
HIGHFILL       FLURRIES  32  20  61 NW18G30   30.10R WCI  20
SPRINGDALE     SUNNY     32  18  55 NW21G30   30.10R WCI  20
$$

ARZ004-005-016-091600-
NORTH CENTRAL ARKANSAS

CITY           SKY/WX    TMP DP  RH WIND       PRES   REMARKS
BATESVILLE     MOSUNNY   36  14  41 W15G29    30.02S
FLIPPIN        SUNNY    N/A N/A N/A NW20G33   30.00R
MTN HOME       MOSUNNY   30  15  53 NW12G30   30.01R WCI  20
$$

ARZ040-041-091600-
WEST CENTRAL ARKANSAS

CITY           SKY/WX    TMP DP  RH WIND       PRES   REMARKS
MENA           SUNNY     41  19  42 W15G22    30.13S
MOUNT IDA      SUNNY     40  17  39 VRB7      30.09S
$$

ARZ009-017-025-026-028-091600-
NORTHEAST ARKANSAS

CITY           SKY/WX    TMP DP  RH WIND       PRES   REMARKS
CORNING        FAIR      28  12  50 NW14G22   30.01S WCI  17
JONESBORO      PTSUNNY   30  13  49 NW18G26   30.00R WCI  18
NEWPORT        MOSUNNY   36  12  37 NW22      30.02S
WALNUT RIDGE   CLOUDY    30  10  43 N18       30.02R WCI  18
BLYTHEVILLE    CLOUDY    31  16  54 NW18      30.00R WCI  19
NW BLYTHEVILLE PTSUNNY   28  16  59 NW21G30   29.99R WCI  15
$$

ARZ022-023-033-042-044-091600-
CENTRAL ARKANSAS

CITY           SKY/WX    TMP DP  RH WIND       PRES   REMARKS
LITTLE ROCK    MOSUNNY   40  18  41 W20G26    30.07S
N LITTLE ROCK  MOSUNNY   37  21  51 W9G22     30.07S
JACKSONVILLE   SUNNY     38  19  45 W13G21    30.04R
SEARCY         PTSUNNY   37  19  48 W8        30.05F
HOT SPRINGS    SUNNY     39  18  42 NW15G25   30.09S
RUSSELLVILLE   SUNNY     38  18  44 W17G28    30.07S
CLINTON        FAIR      37  18  44 W13G20    30.04S
$$

ARZ036-091600-
EAST ARKANSAS

CITY           SKY/WX    TMP DP  RH WIND       PRES   REMARKS
WEST MEMPHIS   MOSUNNY   34  18  52 NW14G21   30.01R WCI  25
$$

ARZ050-053-066-070-073-091600-
SOUTHWEST ARKANSAS

CITY           SKY/WX    TMP DP  RH WIND       PRES   REMARKS
ARKADELPHIA    FAIR      41  19  41 W13       30.14S
CAMDEN         LGT RAIN  41  16  36 W12       30.15S
TEXARKANA      SUNNY     41  19  41 W14       30.20S
EL DORADO      SUNNY     41  18  39 W16G24    30.16S
DE QUEEN       SUNNY     38  20  48 W14       30.19R
$$

ARZ056-057-069-091600-
SOUTHEAST ARKANSAS

CITY           SKY/WX    TMP DP  RH WIND       PRES   REMARKS
PINE BLUFF     SUNNY     38  18  44 W12       30.09S
STUTTGART      SUNNY     37  21  52 W13       30.06S
MONTICELLO     SUNNY     39  18  42 W16G23    30.10S

$$






USA.gov is the U.S. government's official web portal to all federal, state and local government web resources and services.